Home   Weather   Olympia   Past weeks

Flag for USA Past Weather in Olympia, Washington, USA — Yesterday and Last 2 Weeks

Now
55 °F

Sunny.


Feels Like: 55 °F
Forecast: 53 / 84 °F
Wind: No wind

Location: Olympia Airport

Current Time: Jul 24, 2017 at 7:47:28 am

Latest Report: Jul 24, 2017 at 6:54 am


Visibility: 10 mi

Pressure: 30.05 "Hg

Humidity: 93%

Dew Point: 53 °F

Location of OlympiaLocation

Past Weather in Olympia — Graph

°F

Olympia Temperature Yesterday

Maximum temperature yesterday: 78 °F (at 4:54 pm)
Minimum temperature yesterday: 63 °F (at 2:54 am)
Average temperature yesterday: 68 °F

High & Low Weather Summary for the Past Weeks

 TemperatureHumidityPressure
High86 °F (Jul 22, 3:54 pm)100% (Jul 17, 5:54 am)30.28 "Hg (Jul 17, 5:54 am)
Low44 °F (Jul 11, 5:54 am)33% (Jul 18, 6:54 pm)29.97 "Hg (Jul 12, 6:54 pm)
Average64 °F69%30.10 "Hg
* Reported Jul 9 5:54 am — Jul 24 5:54 am, Olympia. Weather by CustomWeather, © 2017

Note: Actual official high and low records may vary slightly from our data, if they occured in-between our weather recording intervals... More about our weather records

Advertising

Olympia Weather History for the Previous 24 Hours

Scroll right to see more
 ConditionsComfort  
Time TempWeatherWind HumidityBarometerVisibility
5:54 am
Mon, Jul 24
50 °FSunny.No wind96%30.04 "Hg10 mi
4:54 am53 °FClear.No wind93%30.03 "Hg10 mi
3:54 am56 °FClear.5 mph90%30.03 "Hg10 mi
2:54 am59 °FClear.6 mph84%30.03 "Hg10 mi
1:54 am60 °FClear.5 mph80%30.03 "Hg10 mi
12:54 am61 °FClear.6 mph78%30.03 "Hg10 mi
11:54 pm
Sun, Jul 23
63 °FClear.7 mph75%30.02 "Hg10 mi
10:54 pm65 °FPassing clouds.5 mph73%30.01 "Hg10 mi
9:54 pm69 °FPassing clouds.6 mph66%30.01 "Hg10 mi
8:54 pm72 °FOvercast.10 mph66%30.00 "Hg10 mi
7:54 pm72 °FSunny.10 mph66%29.99 "Hg10 mi
6:54 pm77 °FPartly sunny.10 mph56%29.99 "Hg10 mi
5:54 pm77 °FScattered clouds.5 mph56%30.00 "Hg10 mi
4:54 pm78 °FScattered clouds.8 mph54%30.01 "Hg10 mi
3:54 pm75 °FScattered clouds.No wind60%30.03 "Hg10 mi
2:54 pm74 °FPartly sunny.6 mph62%30.05 "Hg10 mi
1:54 pm72 °FOvercast.6 mph66%30.06 "Hg10 mi
12:54 pm71 °FOvercast.7 mph68%30.08 "Hg10 mi
11:54 am70 °FOvercast.5 mph71%30.09 "Hg10 mi
10:54 am68 °FOvercast.5 mph76%30.09 "Hg10 mi
9:54 am67 °FOvercast.3 mph79%30.09 "Hg10 mi
8:54 am65 °FMostly cloudy.7 mph85%30.10 "Hg10 mi
7:54 am64 °FOvercast.7 mph87%30.09 "Hg10 mi
Weather by CustomWeather, © 2017

See weather overviewHow to use our weather pages